BAW8MA EGLL-EDDF

Flight info

Callsign BAW8MA
Flight time 1h 20m
Altitude 35000
Route BPK Q295 MATCH DCT REDFA DCT TACHA DCT NOLRU DCT DIXAT DIXAT1A
Aircraft A320/M-SDE3FGHIRWY/LB1

Departure

Time 2026-05-05 12:24
Airport London Heathrow Airport (EGLL)

Arrival

Time 2026-05-05 13:44
Airport Frankfurt Main Airport (EDDF)
Time Latitude Longitude Altitude Speed Heading
2026-05-05 11:47 51.47316 -0.48602 82 ft 0 kts 269°
2026-05-05 12:07 51.47316 -0.48601 82 ft 0 kts 269°
2026-05-05 12:10 51.47316 -0.48599 82 ft 2 kts 269°
2026-05-05 12:10 51.47316 -0.48559 82 ft 4 kts 269°
2026-05-05 12:11 51.47316 -0.48522 82 ft 4 kts 260°
2026-05-05 12:11 51.47327 -0.48486 87 ft 4 kts 210°
2026-05-05 12:11 51.47341 -0.48478 86 ft 0 kts 180°
2026-05-05 12:15 51.47329 -0.48478 87 ft 8 kts 179°
2026-05-05 12:15 51.47256 -0.48477 82 ft 12 kts 180°
2026-05-05 12:15 51.47139 -0.48476 82 ft 21 kts 179°
2026-05-05 12:15 51.46985 -0.48474 82 ft 23 kts 180°
2026-05-05 12:16 51.46884 -0.48472 82 ft 12 kts 178°
2026-05-05 12:16 51.46822 -0.48473 82 ft 0 kts 180°
2026-05-05 12:20 51.46801 -0.48473 82 ft 11 kts 180°
2026-05-05 12:20 51.46682 -0.48472 82 ft 19 kts 179°
2026-05-05 12:20 51.46599 -0.48471 83 ft 0 kts 179°
2026-05-05 12:21 51.46570 -0.48470 83 ft 11 kts 178°
2026-05-05 12:22 51.46490 -0.48470 84 ft 12 kts 172°
2026-05-05 12:22 51.46478 -0.48413 84 ft 1 kts 84°
2026-05-05 12:22 51.46479 -0.48403 84 ft 0 kts 87°
2026-05-05 12:22 51.46479 -0.48401 84 ft 1 kts 87°
2026-05-05 12:23 51.46480 -0.48155 83 ft 56 kts 89°
2026-05-05 12:23 51.46485 -0.47187 84 ft 117 kts 90°
2026-05-05 12:23 51.46489 -0.45623 86 ft 162 kts 89°
2026-05-05 12:23 51.46480 -0.43785 659 ft 162 kts 86°
2026-05-05 12:24 51.46516 -0.41972 1442 ft 161 kts 79°
2026-05-05 12:24 51.46973 -0.40271 1737 ft 180 kts 48°
2026-05-05 12:24 51.47857 -0.38681 2039 ft 202 kts 48°
2026-05-05 12:24 51.48814 -0.36847 2401 ft 227 kts 50°
2026-05-05 12:25 51.49855 -0.34795 2990 ft 246 kts 50°
2026-05-05 12:25 51.50939 -0.32633 3930 ft 250 kts 51°
2026-05-05 12:25 51.52025 -0.30421 4900 ft 254 kts 56°
2026-05-05 12:25 51.52779 -0.27826 5682 ft 263 kts 70°
2026-05-05 12:26 51.53380 -0.25033 5937 ft 265 kts 70°
2026-05-05 12:26 51.54248 -0.22432 6005 ft 266 kts 51°
2026-05-05 12:26 51.55619 -0.20464 6007 ft 266 kts 31°
2026-05-05 12:26 51.57310 -0.19287 6014 ft 266 kts 22°
2026-05-05 12:27 51.59028 -0.18180 6029 ft 266 kts 20°
2026-05-05 12:27 51.60799 -0.17296 6036 ft 266 kts 18°
2026-05-05 12:27 51.62569 -0.16441 6032 ft 266 kts 17°
2026-05-05 12:27 51.64346 -0.15596 6035 ft 266 kts 17°
2026-05-05 12:28 51.66127 -0.14768 6034 ft 267 kts 17°
2026-05-05 12:28 51.67916 -0.13977 6034 ft 267 kts 16°
2026-05-05 12:28 51.69104 -0.13464 6035 ft 267 kts 16°
2026-05-05 12:28 51.70776 -0.12752 6035 ft 267 kts 15°
2026-05-05 12:29 51.72555 -0.11647 6255 ft 269 kts 31°
2026-05-05 12:29 51.74043 -0.09742 7159 ft 272 kts 48°
2026-05-05 12:29 51.75073 -0.07220 7993 ft 277 kts 67°
2026-05-05 12:29 51.75546 -0.04154 8823 ft 282 kts 82°
2026-05-05 12:30 51.75808 -0.00995 9653 ft 286 kts 82°
2026-05-05 12:30 51.76067 0.02191 10237 ft 299 kts 82°
2026-05-05 12:30 51.76346 0.05644 10467 ft 322 kts 82°
2026-05-05 12:30 51.76653 0.09410 10640 ft 346 kts 82°
2026-05-05 12:31 51.76975 0.13361 10981 ft 360 kts 82°
2026-05-05 12:31 51.77302 0.17353 11594 ft 366 kts 82°
2026-05-05 12:31 51.77637 0.21446 12269 ft 369 kts 82°
2026-05-05 12:31 51.78022 0.25558 12940 ft 373 kts 77°
2026-05-05 12:32 51.78663 0.29635 13632 ft 376 kts 75°
2026-05-05 12:32 51.79332 0.33791 14265 ft 380 kts 75°
2026-05-05 12:32 51.79988 0.37881 14842 ft 383 kts 75°
2026-05-05 12:32 51.80658 0.42064 15419 ft 386 kts 75°
2026-05-05 12:33 51.81330 0.46293 16009 ft 390 kts 76°
2026-05-05 12:33 51.82004 0.50561 16594 ft 394 kts 76°
2026-05-05 12:33 51.82680 0.54866 17197 ft 397 kts 76°
2026-05-05 12:33 51.83363 0.59217 17805 ft 401 kts 76°
2026-05-05 12:34 51.84051 0.63609 18416 ft 405 kts 76°
2026-05-05 12:34 51.84747 0.68035 18955 ft 408 kts 76°
2026-05-05 12:34 51.85450 0.72515 19502 ft 412 kts 76°
2026-05-05 12:34 51.86153 0.77017 20035 ft 415 kts 76°
2026-05-05 12:35 51.86861 0.81570 20566 ft 418 kts 77°
2026-05-05 12:35 51.87570 0.86150 21061 ft 421 kts 77°
2026-05-05 12:35 51.88281 0.90773 21541 ft 424 kts 77°
2026-05-05 12:35 51.88993 0.95424 21994 ft 427 kts 77°
2026-05-05 12:36 51.89707 1.00105 22439 ft 430 kts 77°
2026-05-05 12:36 51.90428 1.04827 22873 ft 433 kts 77°
2026-05-05 12:36 51.91157 1.09583 23280 ft 436 kts 77°
2026-05-05 12:36 51.91889 1.14370 23666 ft 439 kts 77°
2026-05-05 12:37 51.92623 1.19189 24005 ft 442 kts 77°
2026-05-05 12:37 51.93358 1.24036 24345 ft 444 kts 77°
2026-05-05 12:37 51.94096 1.28913 24684 ft 447 kts 77°
2026-05-05 12:37 51.94834 1.33812 25009 ft 449 kts 78°
2026-05-05 12:38 51.95573 1.38740 25354 ft 452 kts 78°
2026-05-05 12:38 51.96314 1.43707 25681 ft 454 kts 78°
2026-05-05 12:38 51.97056 1.48700 26005 ft 456 kts 78°
2026-05-05 12:38 51.97800 1.53718 26334 ft 459 kts 78°
2026-05-05 12:39 51.98544 1.58752 26648 ft 461 kts 78°
2026-05-05 12:39 51.99295 1.63837 26961 ft 464 kts 78°
2026-05-05 12:39 52.00045 1.68937 27266 ft 466 kts 78°
2026-05-05 12:39 52.00797 1.74050 27650 ft 466 kts 78°
2026-05-05 12:40 52.01546 1.79165 28123 ft 465 kts 79°
2026-05-05 12:40 52.02290 1.84264 28564 ft 464 kts 79°
2026-05-05 12:40 52.03030 1.89363 29009 ft 464 kts 79°
2026-05-05 12:40 52.03762 1.94464 29459 ft 463 kts 79°
2026-05-05 12:41 52.04490 1.99546 29917 ft 463 kts 79°
2026-05-05 12:41 52.05223 2.04639 30329 ft 462 kts 79°
2026-05-05 12:41 52.05952 2.09721 30719 ft 462 kts 79°
2026-05-05 12:41 52.06677 2.14800 31107 ft 462 kts 79°
2026-05-05 12:42 52.07400 2.19885 31496 ft 462 kts 79°
2026-05-05 12:42 52.08122 2.24967 31885 ft 461 kts 79°
2026-05-05 12:42 52.08841 2.30054 32283 ft 461 kts 79°
2026-05-05 12:42 52.09557 2.35130 32681 ft 461 kts 79°
2026-05-05 12:43 52.10268 2.40209 33074 ft 461 kts 79°
2026-05-05 12:43 52.10967 2.45233 33470 ft 461 kts 79°
2026-05-05 12:43 52.11691 2.50298 33884 ft 460 kts 77°
2026-05-05 12:43 52.12533 2.55330 34245 ft 460 kts 75°
2026-05-05 12:44 52.13474 2.60304 34587 ft 460 kts 73°
2026-05-05 12:44 52.14470 2.65249 34886 ft 460 kts 72°
2026-05-05 12:44 52.16496 2.75216 34983 ft 468 kts 73°
2026-05-05 12:45 52.18447 2.85345 34984 ft 469 kts 74°
2026-05-05 12:45 52.20333 2.95534 34982 ft 470 kts 74°
2026-05-05 12:46 52.22215 3.05743 34980 ft 470 kts 74°
2026-05-05 12:46 52.24014 3.15992 34977 ft 469 kts 81°
2026-05-05 12:47 52.24294 3.26525 34973 ft 464 kts 99°
2026-05-05 12:47 52.22646 3.36597 34966 ft 460 kts 114°
2026-05-05 12:48 52.20287 3.46438 34970 ft 470 kts 114°
2026-05-05 12:48 52.17897 3.56368 34967 ft 471 kts 114°
2026-05-05 12:49 52.15502 3.66304 34963 ft 471 kts 114°
2026-05-05 12:49 52.13094 3.76251 34960 ft 471 kts 114°
2026-05-05 12:50 52.10699 3.86096 34960 ft 472 kts 114°
2026-05-05 12:50 52.08261 3.96070 34953 ft 472 kts 115°
2026-05-05 12:51 52.05836 4.05916 34950 ft 472 kts 115°
2026-05-05 12:51 52.03390 4.15804 34940 ft 471 kts 115°
2026-05-05 12:52 52.00943 4.25666 34935 ft 471 kts 116°
2026-05-05 12:52 51.98489 4.35518 34937 ft 471 kts 116°
2026-05-05 12:53 51.96032 4.45356 34940 ft 471 kts 116°
2026-05-05 12:53 51.93564 4.55181 34934 ft 470 kts 116°
2026-05-05 12:54 51.89842 4.69883 34937 ft 470 kts 117°
2026-05-05 12:55 51.87356 4.79674 34939 ft 470 kts 117°
2026-05-05 12:55 51.84870 4.89440 34945 ft 470 kts 117°
2026-05-05 12:56 51.82359 4.99214 34946 ft 470 kts 117°
2026-05-05 12:56 51.79847 5.08961 34940 ft 471 kts 117°
2026-05-05 12:57 51.77320 5.18739 34940 ft 471 kts 117°
2026-05-05 12:57 51.74788 5.28486 34941 ft 471 kts 117°
2026-05-05 12:58 51.72241 5.38238 34933 ft 472 kts 117°
2026-05-05 12:58 51.69690 5.47989 34934 ft 472 kts 117°
2026-05-05 12:59 51.67129 5.57719 34939 ft 472 kts 117°
2026-05-05 12:59 51.64560 5.67451 34939 ft 472 kts 117°
2026-05-05 13:00 51.60689 5.82028 34940 ft 472 kts 117°
2026-05-05 13:01 51.55521 6.01334 34942 ft 471 kts 118°
2026-05-05 13:01 51.52919 6.10995 34939 ft 472 kts 118°
2026-05-05 13:02 51.50304 6.20660 34937 ft 472 kts 118°
2026-05-05 13:02 51.47802 6.30382 34928 ft 473 kts 116°
2026-05-05 13:03 51.45439 6.40274 34921 ft 475 kts 115°
2026-05-05 13:03 51.43075 6.50135 34903 ft 475 kts 116°
2026-05-05 13:04 51.40649 6.59952 34889 ft 469 kts 116°
2026-05-05 13:04 51.38235 6.69590 34890 ft 463 kts 117°
2026-05-05 13:05 51.35832 6.79150 34889 ft 463 kts 116°
2026-05-05 13:05 51.33437 6.88701 34891 ft 463 kts 116°
2026-05-05 13:06 51.31044 6.98235 34888 ft 462 kts 117°
2026-05-05 13:06 51.28513 7.07640 34883 ft 457 kts 124°
2026-05-05 13:07 51.26794 7.11799 34680 ft 442 kts 134°
2026-05-05 13:07 51.24772 7.15307 34249 ft 420 kts 143°
2026-05-05 13:07 51.22540 7.18134 33588 ft 404 kts 152°
2026-05-05 13:07 51.20136 7.20366 32772 ft 392 kts 159°
2026-05-05 13:08 51.17704 7.22277 31916 ft 388 kts 158°
2026-05-05 13:08 51.15297 7.24168 31079 ft 384 kts 158°
2026-05-05 13:08 51.12911 7.26048 30276 ft 381 kts 158°
2026-05-05 13:08 51.10548 7.27921 29436 ft 379 kts 157°
2026-05-05 13:09 51.08195 7.29828 28094 ft 384 kts 156°
2026-05-05 13:09 51.05765 7.31822 26264 ft 401 kts 155°
2026-05-05 13:09 51.03236 7.33920 24950 ft 422 kts 154°
2026-05-05 13:09 51.00571 7.36140 24624 ft 443 kts 154°
2026-05-05 13:10 50.97804 7.38442 24377 ft 451 kts 154°
2026-05-05 13:10 50.95025 7.40741 24129 ft 444 kts 154°
2026-05-05 13:10 50.92348 7.42947 23985 ft 424 kts 154°
2026-05-05 13:10 50.89784 7.45057 23861 ft 407 kts 154°
2026-05-05 13:11 50.87333 7.47073 23734 ft 384 kts 154°
2026-05-05 13:11 50.85030 7.48960 23605 ft 360 kts 154°
2026-05-05 13:11 50.82854 7.50738 23136 ft 347 kts 154°
2026-05-05 13:11 50.80719 7.52477 22402 ft 342 kts 154°
2026-05-05 13:12 50.78619 7.54185 21638 ft 338 kts 154°
2026-05-05 13:12 50.76562 7.55857 20891 ft 335 kts 154°
2026-05-05 13:12 50.74504 7.57523 20156 ft 331 kts 154°
2026-05-05 13:12 50.72461 7.59173 19432 ft 329 kts 154°
2026-05-05 13:13 50.70434 7.60812 18750 ft 326 kts 154°
2026-05-05 13:13 50.68426 7.62437 18070 ft 323 kts 154°
2026-05-05 13:13 50.66439 7.64051 17319 ft 320 kts 154°
2026-05-05 13:13 50.64473 7.65647 16747 ft 313 kts 154°
2026-05-05 13:14 50.62550 7.67202 16390 ft 311 kts 154°
2026-05-05 13:14 50.61251 7.68251 16136 ft 310 kts 154°
2026-05-05 13:14 50.59337 7.69799 15763 ft 308 kts 154°
2026-05-05 13:14 50.57449 7.71323 15419 ft 308 kts 154°
2026-05-05 13:15 50.55523 7.72871 15067 ft 306 kts 154°
2026-05-05 13:15 50.53657 7.74370 14725 ft 304 kts 154°
2026-05-05 13:15 50.51777 7.75878 14376 ft 303 kts 154°
2026-05-05 13:15 50.49903 7.77376 14035 ft 301 kts 154°
2026-05-05 13:16 50.48036 7.78867 13685 ft 300 kts 154°
2026-05-05 13:16 50.46178 7.80360 13329 ft 299 kts 154°
2026-05-05 13:16 50.44336 7.81844 12973 ft 297 kts 153°
2026-05-05 13:16 50.42615 7.83608 12654 ft 295 kts 143°
2026-05-05 13:17 50.41013 7.85615 12384 ft 294 kts 143°
2026-05-05 13:17 50.39417 7.87603 12106 ft 292 kts 143°
2026-05-05 13:17 50.37828 7.89577 11828 ft 291 kts 143°
2026-05-05 13:17 50.36238 7.91548 11552 ft 290 kts 143°
2026-05-05 13:18 50.34661 7.93502 11275 ft 289 kts 143°
2026-05-05 13:18 50.33084 7.95456 11000 ft 288 kts 143°
2026-05-05 13:18 50.31511 7.97393 10719 ft 287 kts 143°
2026-05-05 13:18 50.29943 7.99321 10463 ft 286 kts 143°
2026-05-05 13:19 50.28378 8.01242 10193 ft 285 kts 143°
2026-05-05 13:19 50.26831 8.03164 9923 ft 284 kts 140°
2026-05-05 13:19 50.25529 8.05413 9752 ft 283 kts 128°
2026-05-05 13:19 50.24334 8.07881 9684 ft 285 kts 128°
2026-05-05 13:20 50.23128 8.10337 9613 ft 285 kts 129°
2026-05-05 13:20 50.21918 8.12790 9530 ft 285 kts 129°
2026-05-05 13:20 50.20703 8.15245 9446 ft 285 kts 129°
2026-05-05 13:20 50.19491 8.17692 9363 ft 284 kts 129°
2026-05-05 13:21 50.18283 8.20130 9287 ft 284 kts 129°
2026-05-05 13:21 50.17075 8.22569 9204 ft 283 kts 129°
2026-05-05 13:21 50.15871 8.24998 9122 ft 283 kts 129°
2026-05-05 13:21 50.14667 8.27428 9043 ft 283 kts 129°
2026-05-05 13:22 50.13467 8.29853 8953 ft 282 kts 129°
2026-05-05 13:22 50.12267 8.32269 8877 ft 282 kts 129°
2026-05-05 13:22 50.11160 8.34785 8786 ft 282 kts 117°
2026-05-05 13:22 50.10553 8.37692 8707 ft 284 kts 99°
2026-05-05 13:23 50.10560 8.40762 8613 ft 286 kts 81°
2026-05-05 13:23 50.11153 8.43719 8544 ft 287 kts 70°
2026-05-05 13:23 50.11864 8.46622 8434 ft 287 kts 70°
2026-05-05 13:23 50.12567 8.49535 8345 ft 287 kts 71°
2026-05-05 13:24 50.13268 8.52457 8259 ft 287 kts 71°
2026-05-05 13:24 50.13964 8.55367 8179 ft 286 kts 71°
2026-05-05 13:24 50.14656 8.58271 8096 ft 286 kts 71°
2026-05-05 13:24 50.15345 8.61171 8013 ft 285 kts 71°
2026-05-05 13:25 50.16033 8.64075 7918 ft 285 kts 71°
2026-05-05 13:25 50.16710 8.66933 7839 ft 284 kts 71°
2026-05-05 13:25 50.17393 8.69823 7758 ft 284 kts 71°
2026-05-05 13:25 50.18076 8.72714 7670 ft 284 kts 71°
2026-05-05 13:26 50.18759 8.75602 7585 ft 284 kts 71°
2026-05-05 13:26 50.19444 8.78489 7506 ft 283 kts 71°
2026-05-05 13:26 50.20125 8.81376 7419 ft 283 kts 71°
2026-05-05 13:26 50.20803 8.84252 7337 ft 283 kts 71°
2026-05-05 13:27 50.21485 8.87135 7255 ft 282 kts 71°
2026-05-05 13:27 50.22163 8.90001 7170 ft 282 kts 71°
2026-05-05 13:27 50.22840 8.92881 7089 ft 282 kts 71°
2026-05-05 13:27 50.23510 8.95752 7003 ft 282 kts 71°
2026-05-05 13:28 50.24176 8.98622 6927 ft 281 kts 71°
2026-05-05 13:28 50.24844 9.01495 6838 ft 281 kts 71°
2026-05-05 13:28 50.25512 9.04362 6751 ft 281 kts 71°
2026-05-05 13:28 50.26183 9.07229 6686 ft 281 kts 71°
2026-05-05 13:29 50.26848 9.10087 6596 ft 280 kts 71°
2026-05-05 13:29 50.27510 9.12951 6509 ft 280 kts 71°
2026-05-05 13:29 50.28170 9.15807 6435 ft 280 kts 71°
2026-05-05 13:29 50.28832 9.18667 6351 ft 279 kts 71°
2026-05-05 13:30 50.29489 9.21521 6270 ft 279 kts 71°
2026-05-05 13:30 50.30147 9.24384 6181 ft 279 kts 71°
2026-05-05 13:30 50.30805 9.27232 6098 ft 278 kts 71°
2026-05-05 13:30 50.31461 9.30063 5873 ft 275 kts 71°
2026-05-05 13:31 50.32112 9.32891 5801 ft 276 kts 71°
2026-05-05 13:31 50.32745 9.35689 5743 ft 276 kts 71°
2026-05-05 13:31 50.33386 9.38565 5670 ft 276 kts 72°
2026-05-05 13:31 50.34003 9.41366 5541 ft 275 kts 72°
2026-05-05 13:32 50.34405 9.44269 5411 ft 272 kts 90°
2026-05-05 13:32 50.34080 9.47153 5284 ft 270 kts 114°
2026-05-05 13:32 50.33049 9.49569 5157 ft 268 kts 137°
2026-05-05 13:32 50.31491 9.51114 5033 ft 266 kts 161°
2026-05-05 13:33 50.29675 9.51558 4924 ft 266 kts 184°
2026-05-05 13:33 50.27897 9.50849 4881 ft 266 kts 207°
2026-05-05 13:33 50.26437 9.49096 4827 ft 267 kts 230°
2026-05-05 13:33 50.25407 9.46677 4783 ft 267 kts 238°
2026-05-05 13:34 50.24449 9.44192 4725 ft 267 kts 243°
2026-05-05 13:34 50.23763 9.41496 4597 ft 266 kts 249°
2026-05-05 13:34 50.23117 9.38785 4547 ft 267 kts 249°
2026-05-05 13:34 50.22470 9.36066 4494 ft 267 kts 249°
2026-05-05 13:35 50.21823 9.33347 4441 ft 266 kts 249°
2026-05-05 13:35 50.21179 9.30645 4378 ft 266 kts 249°
2026-05-05 13:35 50.20534 9.27944 4332 ft 266 kts 249°
2026-05-05 13:35 50.19890 9.25247 4281 ft 265 kts 249°
2026-05-05 13:36 50.19256 9.22588 4231 ft 264 kts 249°
2026-05-05 13:36 50.18613 9.19899 4134 ft 264 kts 249°
2026-05-05 13:36 50.17971 9.17217 4012 ft 264 kts 249°
2026-05-05 13:36 50.17328 9.14539 4012 ft 264 kts 249°
2026-05-05 13:37 50.16684 9.11856 4017 ft 264 kts 249°
2026-05-05 13:37 50.16038 9.09171 4015 ft 264 kts 249°
2026-05-05 13:37 50.15400 9.06521 4017 ft 256 kts 249°
2026-05-05 13:37 50.14760 9.04022 4014 ft 241 kts 246°
2026-05-05 13:38 50.14150 9.01649 4023 ft 234 kts 248°
2026-05-05 13:38 50.13585 8.99276 4026 ft 233 kts 249°
2026-05-05 13:38 50.13031 8.96903 4017 ft 233 kts 249°
2026-05-05 13:38 50.12477 8.94530 4029 ft 233 kts 249°
2026-05-05 13:39 50.11921 8.92158 4027 ft 233 kts 249°
2026-05-05 13:39 50.11364 8.89785 4017 ft 232 kts 249°
2026-05-05 13:39 50.10815 8.87446 4029 ft 226 kts 249°
2026-05-05 13:39 50.10276 8.85154 3886 ft 227 kts 250°
2026-05-05 13:40 50.09726 8.82820 3592 ft 230 kts 249°
2026-05-05 13:40 50.09179 8.80498 3299 ft 227 kts 250°
2026-05-05 13:40 50.08642 8.78222 3011 ft 218 kts 249°
2026-05-05 13:40 50.08139 8.76090 2727 ft 202 kts 249°
2026-05-05 13:41 50.07671 8.74111 2500 ft 187 kts 249°
2026-05-05 13:41 50.07236 8.72272 2237 ft 176 kts 249°
2026-05-05 13:41 50.06834 8.70575 2010 ft 161 kts 249°
2026-05-05 13:41 50.06465 8.69014 1804 ft 145 kts 249°
2026-05-05 13:42 50.06122 8.67569 1616 ft 141 kts 249°
2026-05-05 13:42 50.05788 8.66163 1432 ft 138 kts 249°
2026-05-05 13:42 50.05455 8.64762 1241 ft 137 kts 249°
2026-05-05 13:42 50.05126 8.63375 1064 ft 135 kts 249°
2026-05-05 13:43 50.04804 8.62023 877 ft 135 kts 250°
2026-05-05 13:43 50.04481 8.60664 690 ft 133 kts 249°
2026-05-05 13:43 50.04157 8.59304 509 ft 132 kts 248°
2026-05-05 13:43 50.03846 8.57997 372 ft 127 kts 249°
2026-05-05 13:44 50.03582 8.56885 354 ft 83 kts 251°
2026-05-05 13:44 50.03444 8.56288 357 ft 34 kts 250°
2026-05-05 13:44 50.03357 8.55924 353 ft 39 kts 249°
2026-05-05 13:44 50.03223 8.55572 346 ft 37 kts 226°
2026-05-05 13:45 50.03091 8.55391 343 ft 12 kts 221°